Regional Weather Roundup
Issued by NWS

Home | Current Version | Previous Version | Graphics & Text | Print | Product List | Glossary On
Versions: 1 2 3 4 5 6 7 8 9 10 11 12 13 14 15 16 17 18 19 20 21 22 23 24 25 26 27 28 29 30 31 32 33 34 35 36 37 38 39 40 41 42 43 44 45 46 47 48 49 50
000
ASUS43 KMPX 251201
RWRMN
WEATHER ROUNDUP FOR MINNESOTA
NATIONAL WEATHER SERVICE TWIN CITIES/CHANHASSEN MN
700 AM CDT MON MAY 25 2015


NOTE: "FAIR" INDICATES FEW OR NO CLOUDS BELOW 12,000 FEET WITH NO
SIGNIFICANT WEATHER AND/OR OBSTRUCTIONS TO VISIBILITY. N/A MEANS
CURRENT SKY AND/OR WEATHER CONDITIONS ARE NOT AVAILABLE.

MNZ060>063-068>070-251300-
   Twin Cities Metro

CITY           SKY/WX    TMP DP  RH WIND       PRES   REMARKS
TWIN CITIES    FOG       58  58 100 SE5       29.67R VSB 3/4
6HR MIN TEMP:  57; 6HR MAX TEMP:  58; 6HR PCP:  0.17;

ST PAUL        CLOUDY    58  58 100 S3        29.67S FOG
CRYSTAL        FOG       57  57 100 E5        29.66R VSB 3/4
BLAINE         CLOUDY    59  59 100 CALM      29.67S FOG
LAKEVILLE      CLOUDY    57  57 100 CALM      29.67R FOG
EDEN PRAIRIE   FOG       59  59 100 S3        29.66R VSB 1/2
6HR MIN TEMP:  58; 6HR MAX TEMP:  59; 6HR PCP:  0.10;

SOUTH ST PAUL  CLOUDY    59  58  96 CALM      29.67S FOG
LAKE ELMO      CLOUDY    57  57 100 CALM      29.68F FOG
$$
MNZ001>005-007-008-013>017-022>024-027-028-251300-
   Northwest Minnesota

CITY           SKY/WX    TMP DP  RH WIND       PRES   REMARKS
BEMIDJI        LGT RAIN  55  54  97 CALM      29.80S
HALLOCK        CLOUDY    54  50  87 S3        29.79R
ROSEAU         CLOUDY    55  50  82 CALM      29.79S
WARROAD        CLOUDY    57  48  72 N6        29.80S
THIEF RVR FALL CLOUDY    55  50  82 CALM      29.81S
CROOKSTON      CLOUDY    57  52  82 W3        29.81S
FOSSTON        DRIZZLE   54  52  94 CALM      29.81F
DETROIT LAKES  LGT RAIN  55  54  94 NE13      29.77F
MOORHEAD       LGT RAIN  57  55  94 N14       29.78S
PARK RAPIDS    LGT RAIN  57  54  89 NE13      29.75S
MAHNOMEN       RAIN      56  54  94 NE7       29.79F
$$
MNZ006-009>011-018-025>026-251300-
   North Central Minnesota

CITY           SKY/WX    TMP DP  RH WIND       PRES   REMARKS
BAUDETTE       CLOUDY    53  50  89 CALM      29.79S
FLAG ISLAND    CLOUDY    61  46  59 N8        29.79S
INTL FALLS     CLOUDY    55  50  83 CALM      29.79F
6HR MIN TEMP:  51; 6HR MAX TEMP:  59;

WASKISH        CLOUDY    57  54  88 CALM      29.80S
BIG FORK       LGT RAIN  55  54  94 CALM      29.81F
LONGVILLE      LGT RAIN  55  55 100 NE6       29.75F
GRAND RAPIDS   CLOUDY    55  52  88 N5        29.77F
CRANE LAKE     CLOUDY    52  52 100 CALM      29.83S
ORR            CLOUDY    55  52  88 CALM      29.79S
COOK           RAIN      55  54  94 CALM      29.82R
WALKER         RAIN      56  54  94 NE7       29.77F
$$
MNZ012-019>021-037-251300-
   Northeast Minnesota

CITY           SKY/WX    TMP DP  RH WIND       PRES   REMARKS
DULUTH         LGT RAIN  58  55  90 NE16      29.73F FOG
6HR MIN TEMP:  58; 6HR MAX TEMP:  58; 6HR PCP:  0.24;

ELY            LGT RAIN  54  54 100 CALM      29.82S
HIBBING        LGT RAIN  57  54  89 NE8       29.78F
EVELETH        DRIZZLE   57  55  94 NE8       29.79F
DULUTH HARBOR  RAIN      46  45  93 E10       29.75S
TWO HARBORS    LGT RAIN  61  55  82 NE9G17    29.74F
GRAND MARAIS     N/A     44  42  93 NE6       29.81F
G MARAIS ARPRT RAIN      52  46  82 NE3       29.85F
$$
MNZ029>031-032-039>041-046>048-054>057-064-251300-
   West Central Minnesota

CITY           SKY/WX    TMP DP  RH WIND       PRES   REMARKS
FERGUS FALLS   RAIN      57  57 100 NE13G21   29.72S
WHEATON        LGT RAIN  54  54 100 N6        29.73S
MORRIS         LGT RAIN  57  57 100 N9        29.68F
ALEXANDRIA     LGT RAIN  57  57 100 NE7       29.70F FOG
ELBOW LAKE     LGT RAIN  56  56 100 N6        29.70F
WADENA         RAIN      55  55 100 NE13      29.70F
GLENWOOD       CLOUDY    55  55 100 N7        29.70S
APPLETON       DRIZZLE   59  57  94 N5        29.68F
BENSON         DRIZZLE   57  55  94 N5        29.68F
ORTONVILLE     LGT RAIN  57  55  94 N8        29.70S
MADISON        CLOUDY    57  55  94 NW7       29.69F
WILLMAR        DRIZZLE   57  57 100 NW3       29.69S
$$
MNZ033>034-036-042>043-049>051-058-059-251300-
   Central Minnesota

CITY           SKY/WX    TMP DP  RH WIND       PRES   REMARKS
ST CLOUD       CLOUDY    57  56  96 E5        29.67S FOG
6HR MIN TEMP:  57; 6HR MAX TEMP:  57; 6HR PCP:  0.13;

SAUK CENTRE    HVY RAIN  56  56  99 CALM      29.69S
PAYNESVILLE    DRIZZLE   54  54 100 NW3       29.67F
AITKIN         RAIN      57  52  82 NE7       29.69F
PINE RIVER     RAIN      55  55 100 NE13G18   29.76F
BRAINERD       RAIN      57  56  96 NE8       29.70F FOG
STAPLES        LGT RAIN  55  55 100 NE6       29.70S
LONG PRAIRIE   RAIN      55  54  94 N5        29.69S
LITTLE FALLS   DRIZZLE   55  54  94 NE3       29.68S
LITCHFIELD     CLOUDY    57  57 100 N1        29.67F
BUFFALO        CLOUDY    57  55  94 E5        29.67S FOG
MAPLE LAKE     CLOUDY    58  57  97 E6        29.67S FOG
$$
MNZ037-044-045-052-053-251300-
   East Central Minnesota

CITY           SKY/WX    TMP DP  RH WIND       PRES   REMARKS
PRINCETON      DRIZZLE   57  55  94 E7        29.68S
MORA           CLOUDY    54  52  94 CALM      29.70S
CAMBRIDGE      DRIZZLE   59  52  77 CALM      29.67R
RUSH CITY      CLOUDY    57  56  96 NE5       29.69S
MOOSE LAKE     CLOUDY    54  54 100 NE10G16   29.69F
HINCKLEY       LGT RAIN  57  57 100 NE5       29.69F
CLOQUET        DRIZZLE   57  55  94 NE10G17   29.72F
MCGREGOR       CLOUDY    55  55 100 NE6       29.72S
$$
MNZ071>073-080-081-089-090-097-098-251300-
   Southwest Minnesota

CITY           SKY/WX    TMP DP  RH WIND       PRES   REMARKS
MONTEVIDEO     LGT RAIN  57  57 100 CALM      29.69F
GRANITE FALLS  CLOUDY    57  57 100 W5        29.70F FOG
CANBY          CLOUDY    57  56  97 NW5       29.71S FOG
MARSHALL       CLOUDY    57  54  88 N8        29.68F
REDWOOD FALLS  FOG       58  57  97 NW8       29.67S VSB 3/4
OLIVIA         FOG       54  54 100 NW5       29.67S VSB 3/4
WINDOM         CLOUDY    57  55  94 W7        29.70S
WORTHINGTON    CLOUDY    57  54  88 W10       29.73R
JACKSON        CLOUDY    59  59 100 W6        29.73R
TRACY          CLOUDY    58  57  99 NW7       29.70S FOG
SLAYTON        CLOUDY    56  56 100 CALM      29.73R
$$
MNZ065>067-074>077-082>085-091>093-251300-
   South Central Minnesota

CITY           SKY/WX    TMP DP  RH WIND       PRES   REMARKS
MANKATO        CLOUDY    61  57  88 SW9       29.69R
NEW ULM        CLOUDY    57  57 100 W9        29.69R
ST JAMES       CLOUDY    61  61 100 SW5       29.71R
FAIRMONT       CLOUDY    61  55  82 W9        29.71R
GLENCOE        CLOUDY    59  60 100 SW3       29.66S FOG
FARIBAULT      CLOUDY    63  61  94 S5        29.68R FOG
OWATONNA       CLOUDY    63  59  88 SW12      29.69R
WASECA         CLOUDY    59  57  94 SW13      29.70S FOG
ALBERT LEA     CLOUDY    61  61 100 SW9       29.71R
$$
MNZ078>079-086>088-094>096-251300-
   Southeast Minnesota

CITY           SKY/WX    TMP DP  RH WIND       PRES   REMARKS
ROCHESTER      CLOUDY    62  60  93 SW10      29.72R FOG
6HR MIN TEMP:  59; 6HR MAX TEMP:  62; 6HR PCP:  0.01;

RED WING       CLOUDY    59  57  94 SE6       29.67R FOG
STANTON        CLOUDY    63  60  91 SW8       29.66R FOG
DODGE CENTER   CLOUDY    63  61  94 SW10      29.70R FOG
WINONA         CLOUDY    59  59 100 CALM      29.69F FOG
AUSTIN         CLOUDY    61  61 100 SW8       29.71R FOG
PRESTON        CLOUDY    61  60  96 SW6       29.72S FOG
$$
ABBREVIATIONS USED IN REMARKS
   TC - TEMPERATURES IN CELSIUS
  WCI - WIND CHILL INDEX
   HX - HEAT INDEX
  VSB - VISIBILITY
$$



USA.gov is the U.S. government's official web portal to all federal, state and local government web resources and services.